LiveATC.Net - Listen to live air traffic control over the Internet!
Airport/ARTCC Code
Frequency Search
(e.g., 124.400, 128.75)
Site-wide search
 


Browse Feeds
Top 50 Feeds
HF Oceanic Feeds
Coverage Map
Bad Weather Areas

LiveATC FAQ
Offer LiveATC feed
Contact LiveATC.net
Press Inquiries

LiveATC on iPhone
LiveATC on Android

Windows Phone
Windows 8/10

LiveATC Mobile
(Mobile browser)

ATC Audio Archives
Interesting Recordings

LiveATC Forums

Home Page
About LiveATC.net
Make a Donation
Terms of Use
Privacy Policy

Canadian Air Freqs

AIRMETs/SIGMETs

FAA Airport Status
NAS Status
Arrival Demand


Server Software By:
Icecast.org
Liquidsoap

Select an area of interest:
U.S. Feeds: Class B Airports | Class C Airports | Class D/Other Airports | ARTCC (Centers)
International Feeds: Canada | Europe | Oceania | Asia | South America | North/Central America | Africa
Misc Feeds: HF Feeds
Search by ICAO/IATA airport code:   (e.g., kbos, kjfk, lax, eham, etc.)


Currently Available Live Feeds: 2913
Status Updated: Sat Jul 24 2021 01:16:38 UTC


NOTICE

Unauthorized use prohibited. See LiveATC.net Terms of Service

Asia Airport Feeds

 

OBBI Gnd/Twr/App (Archives)
Muharraq, Bahrain

Feed Status: UP
Listen in your browser - HTML5 player(in browser, HTML5)
Click here to listen with your own player(launches your MP3 player)

OBBI 240100Z 28003KT CAVOK 35/24 Q0994 NOSIG


Listeners: 2 out of 1408 total

Bahrain Arrival: 127.850
Bahrain Control (Low Central): 124.300
Bahrain Control (Low East): 125.700
Bahrain Control (Low North): 126.700
Bahrain Departure: 119.100
Bahrain Ground: 121.850
Bahrain Tower: 118.500

OKBK Gnd/Twr/App/Radar (Archives)
Kuwait City, Kuwait

Feed Status: UP
Listen in your browser - HTML5 player(in browser, HTML5)
Click here to listen with your own player(launches your MP3 player)

OKBK 240100Z 30006KT CAVOK 36/11 Q0995 NOSIG


Listeners: 4 out of 1408 total

Kuwait Approach: 121.300
Kuwait Approach: 124.800
Kuwait Ground: 121.700
Kuwait Radar (Center): 125.300
Kuwait Tower: 118.300

OPKC Gnd/Twr/Radar (Archives)
Karachi, Pakistan

Feed Status: UP
Listen in your browser - HTML5 player(in browser, HTML5)
Click here to listen with your own player(launches your MP3 player)

OPKC 240055Z 25007KT 4000 FU SCT020 29/25 Q0999 NOSIG


Listeners: 1 out of 1408 total

Karachi Ground: 121.600
Karachi Radar: 125.500
Karachi Tower: 118.300

OPLA ATIS (Archives)
Lahore, Pakistan

Feed Status: UP
Listen in your browser - HTML5 player(in browser, HTML5)
Click here to listen with your own player(launches your MP3 player)

OPLA 240055Z 00000KT 4000 FU FEW100 29/24 Q0999 NOSIG RMK QFE972 RMK A29.52


Listeners: 0 out of 1408 total

Lahore ATIS: 126.300

OPLA/OPLH Gnd/Twr/App (Archives)
Lahore, Pakistan

Feed Status: UP
Listen in your browser - HTML5 player(in browser, HTML5)
Click here to listen with your own player(launches your MP3 player)

OPLA 240055Z 00000KT 4000 FU FEW100 29/24 Q0999 NOSIG RMK QFE972 RMK A29.52


Listeners: 0 out of 1408 total

Lahore Approach: 121.300
Lahore Approach: 125.300
Lahore Control: 127.500
Lahore Ground: 118.400
Lahore Tower: 118.100
Lahore Tower: 121.800
Walton (OPLH) Tower: 119.400

RJAA Approach (Archives)
Tokyo, Japan

Feed Status: UP
Listen in your browser - HTML5 player(in browser, HTML5)
Click here to listen with your own player(launches your MP3 player)

RJAA 240030Z 13005KT 070V200 9999 FEW020 BKN030 30/24 Q1012 NOSIG RMK 1CU020 5CU030 A2988

RJAA Flight Activity (Flightaware)

Listeners: 10 out of 1408 total

Tokyo Approach: 124.400
Tokyo Approach: 127.700

RJAA ATIS (Archives)
Tokyo, Japan

Feed Status: UP
Listen in your browser - HTML5 player(in browser, HTML5)
Click here to listen with your own player(launches your MP3 player)

RJAA 240030Z 13005KT 070V200 9999 FEW020 BKN030 30/24 Q1012 NOSIG RMK 1CU020 5CU030 A2988

RJAA Flight Activity (Flightaware)

Listeners: 0 out of 1408 total

Narita ATIS: 128.250

RJAA Clearance Delivery (Archives)
Tokyo, Japan

Feed Status: UP
Listen in your browser - HTML5 player(in browser, HTML5)
Click here to listen with your own player(launches your MP3 player)

RJAA 240030Z 13005KT 070V200 9999 FEW020 BKN030 30/24 Q1012 NOSIG RMK 1CU020 5CU030 A2988

RJAA Flight Activity (Flightaware)

Listeners: 0 out of 1408 total

Narita Clearance Delivery (Asia/Pacific): 121.650
Narita Clearance Delivery (US/Europe): 121.900

RJAA Clearance Delivery #1 (Archives)
Tokyo, Japan

Feed Status: UP
Listen in your browser - HTML5 player(in browser, HTML5)
Click here to listen with your own player(launches your MP3 player)

RJAA 240030Z 13005KT 070V200 9999 FEW020 BKN030 30/24 Q1012 NOSIG RMK 1CU020 5CU030 A2988

RJAA Flight Activity (Flightaware)

Listeners: 0 out of 1408 total

Narita Clearance Delivery (Asia/Pacific): 121.650

RJAA Clearance Delivery #2 (Archives)
Tokyo, Japan

Feed Status: UP
Listen in your browser - HTML5 player(in browser, HTML5)
Click here to listen with your own player(launches your MP3 player)

RJAA 240030Z 13005KT 070V200 9999 FEW020 BKN030 30/24 Q1012 NOSIG RMK 1CU020 5CU030 A2988

RJAA Flight Activity (Flightaware)

Listeners: 0 out of 1408 total

Narita Clearance Delivery (US/Europe): 121.900

RJAA Company Channels (Archives)
Tokyo, Japan

Feed Status: UP
Listen in your browser - HTML5 player(in browser, HTML5)
Click here to listen with your own player(launches your MP3 player)

RJAA 240030Z 13005KT 070V200 9999 FEW020 BKN030 30/24 Q1012 NOSIG RMK 1CU020 5CU030 A2988

RJAA Flight Activity (Flightaware)

Listeners: 2 out of 1408 total

Ops: 130.450
Ops: 130.550
Ops: 130.900
Ops: 131.025
Ops: 131.100
Ops: 131.200
Ops: 131.700
Ops: 131.750

RJAA Departure (Archives)
Tokyo, Japan

Feed Status: UP
Listen in your browser - HTML5 player(in browser, HTML5)
Click here to listen with your own player(launches your MP3 player)

RJAA 240030Z 13005KT 070V200 9999 FEW020 BKN030 30/24 Q1012 NOSIG RMK 1CU020 5CU030 A2988

RJAA Flight Activity (Flightaware)

Listeners: 3 out of 1408 total

Tokyo Departure: 119.600
Tokyo Departure: 124.200

RJAA Departure #1 (Archives)
Tokyo, Japan

Feed Status: UP
Listen in your browser - HTML5 player(in browser, HTML5)
Click here to listen with your own player(launches your MP3 player)

RJAA 240030Z 13005KT 070V200 9999 FEW020 BKN030 30/24 Q1012 NOSIG RMK 1CU020 5CU030 A2988

RJAA Flight Activity (Flightaware)

Listeners: 0 out of 1408 total

Tokyo Departure: 124.200

RJAA Departure #2 (Archives)
Tokyo, Japan

Feed Status: UP
Listen in your browser - HTML5 player(in browser, HTML5)
Click here to listen with your own player(launches your MP3 player)

RJAA 240030Z 13005KT 070V200 9999 FEW020 BKN030 30/24 Q1012 NOSIG RMK 1CU020 5CU030 A2988

RJAA Flight Activity (Flightaware)

Listeners: 0 out of 1408 total

Tokyo Departure: 119.600

RJAA Emergency/Guard (Archives)
Tokyo, Japan

Feed Status: UP
Listen in your browser - HTML5 player(in browser, HTML5)
Click here to listen with your own player(launches your MP3 player)

RJAA 240030Z 13005KT 070V200 9999 FEW020 BKN030 30/24 Q1012 NOSIG RMK 1CU020 5CU030 A2988

RJAA Flight Activity (Flightaware)

Listeners: 0 out of 1408 total

Emergency/Guard: 121.500

RJAA Ground #1 (Archives)
Tokyo, Japan

Feed Status: UP
Listen in your browser - HTML5 player(in browser, HTML5)
Click here to listen with your own player(launches your MP3 player)

RJAA 240030Z 13005KT 070V200 9999 FEW020 BKN030 30/24 Q1012 NOSIG RMK 1CU020 5CU030 A2988

RJAA Flight Activity (Flightaware)

Listeners: 1 out of 1408 total

Narita Ground: 121.850

RJAA Ground #2 (Archives)
Tokyo, Japan

Feed Status: UP
Listen in your browser - HTML5 player(in browser, HTML5)
Click here to listen with your own player(launches your MP3 player)

RJAA 240030Z 13005KT 070V200 9999 FEW020 BKN030 30/24 Q1012 NOSIG RMK 1CU020 5CU030 A2988

RJAA Flight Activity (Flightaware)

Listeners: 1 out of 1408 total

Narita Ground: 121.950

RJAA Radar 119.025 (Archives)
Tokyo, Japan

Feed Status: UP
Listen in your browser - HTML5 player(in browser, HTML5)
Click here to listen with your own player(launches your MP3 player)

RJAA 240030Z 13005KT 070V200 9999 FEW020 BKN030 30/24 Q1012 NOSIG RMK 1CU020 5CU030 A2988

RJAA Flight Activity (Flightaware)

Listeners: 1 out of 1408 total

Tokyo Radar: 119.025

RJAA Radar 120.2 (Archives)
Tokyo, Japan

Feed Status: UP
Listen in your browser - HTML5 player(in browser, HTML5)
Click here to listen with your own player(launches your MP3 player)

RJAA 240030Z 13005KT 070V200 9999 FEW020 BKN030 30/24 Q1012 NOSIG RMK 1CU020 5CU030 A2988

RJAA Flight Activity (Flightaware)

Listeners: 1 out of 1408 total

Tokyo Radar: 120.200

RJAA Radar 120.6 (Archives)
Tokyo, Japan

Feed Status: UP
Listen in your browser - HTML5 player(in browser, HTML5)
Click here to listen with your own player(launches your MP3 player)

RJAA 240030Z 13005KT 070V200 9999 FEW020 BKN030 30/24 Q1012 NOSIG RMK 1CU020 5CU030 A2988

RJAA Flight Activity (Flightaware)

Listeners: 1 out of 1408 total

Tokyo Radar: 120.600

RJAA Radar 132.1 (Archives)
Tokyo, Japan

Feed Status: UP
Listen in your browser - HTML5 player(in browser, HTML5)
Click here to listen with your own player(launches your MP3 player)

RJAA 240030Z 13005KT 070V200 9999 FEW020 BKN030 30/24 Q1012 NOSIG RMK 1CU020 5CU030 A2988

RJAA Flight Activity (Flightaware)

Listeners: 1 out of 1408 total

Tokyo Radar: 132.100

RJAA Radar 133.35 (Archives)
Tokyo, Japan

Feed Status: UP
Listen in your browser - HTML5 player(in browser, HTML5)
Click here to listen with your own player(launches your MP3 player)

RJAA 240030Z 13005KT 070V200 9999 FEW020 BKN030 30/24 Q1012 NOSIG RMK 1CU020 5CU030 A2988

RJAA Flight Activity (Flightaware)

Listeners: 1 out of 1408 total

Tokyo Radar: 133.350

RJAA Ramp #1 (Archives)
Tokyo, Japan

Feed Status: UP
Listen in your browser - HTML5 player(in browser, HTML5)
Click here to listen with your own player(launches your MP3 player)

RJAA 240030Z 13005KT 070V200 9999 FEW020 BKN030 30/24 Q1012 NOSIG RMK 1CU020 5CU030 A2988

RJAA Flight Activity (Flightaware)

Listeners: 0 out of 1408 total

Narita Ramp: 121.600

RJAA Ramp #2 (Archives)
Tokyo, Japan

Feed Status: UP
Listen in your browser - HTML5 player(in browser, HTML5)
Click here to listen with your own player(launches your MP3 player)

RJAA 240030Z 13005KT 070V200 9999 FEW020 BKN030 30/24 Q1012 NOSIG RMK 1CU020 5CU030 A2988

RJAA Flight Activity (Flightaware)

Listeners: 0 out of 1408 total

Narita Ramp: 121.750

RJAA TCA (Archives)
Tokyo, Japan

Feed Status: UP
Listen in your browser - HTML5 player(in browser, HTML5)
Click here to listen with your own player(launches your MP3 player)

RJAA 240030Z 13005KT 070V200 9999 FEW020 BKN030 30/24 Q1012 NOSIG RMK 1CU020 5CU030 A2988

RJAA Flight Activity (Flightaware)

Listeners: 0 out of 1408 total

Tokyo TCA (Terminal Control Area): 119.450

RJAA Tokyo Control (Archives)
Tokyo, Japan

Feed Status: UP
Listen in your browser - HTML5 player(in browser, HTML5)
Click here to listen with your own player(launches your MP3 player)

RJAA 240030Z 13005KT 070V200 9999 FEW020 BKN030 30/24 Q1012 NOSIG RMK 1CU020 5CU030 A2988

RJAA Flight Activity (Flightaware)

Listeners: 2 out of 1408 total

Tokyo Control: 125.900

RJAA Tower #1 (Archives)
Tokyo, Japan

Feed Status: UP
Listen in your browser - HTML5 player(in browser, HTML5)
Click here to listen with your own player(launches your MP3 player)

RJAA 240030Z 13005KT 070V200 9999 FEW020 BKN030 30/24 Q1012 NOSIG RMK 1CU020 5CU030 A2988

RJAA Flight Activity (Flightaware)

Listeners: 2 out of 1408 total

Narita Tower (Rwy 16R/34L): 118.200

RJAA Tower #2 (Archives)
Tokyo, Japan

Feed Status: UP
Listen in your browser - HTML5 player(in browser, HTML5)
Click here to listen with your own player(launches your MP3 player)

RJAA 240030Z 13005KT 070V200 9999 FEW020 BKN030 30/24 Q1012 NOSIG RMK 1CU020 5CU030 A2988

RJAA Flight Activity (Flightaware)

Listeners: 4 out of 1408 total

Narita Tower (Rwy 16L/34R): 118.350

RJAA Tower (Both) (Archives)
Tokyo, Japan

Feed Status: UP
Listen in your browser - HTML5 player(in browser, HTML5)
Click here to listen with your own player(launches your MP3 player)

RJAA 240030Z 13005KT 070V200 9999 FEW020 BKN030 30/24 Q1012 NOSIG RMK 1CU020 5CU030 A2988

RJAA Flight Activity (Flightaware)

Listeners: 2 out of 1408 total

Narita Tower (Rwy 16L/34R): 118.350
Narita Tower (Rwy 16R/34L): 118.200

RJOO Tower (Archives)
Osaka, Japan

Feed Status: UP
Listen in your browser - HTML5 player(in browser, HTML5)
Click here to listen with your own player(launches your MP3 player)

RJOO 240000Z VRB02KT 9999 FEW020 30/23 Q1010 RMK 1CU020 A2984

RJOO Flight Activity (Flightaware)

Listeners: 6 out of 1408 total

Osaka Tower: 118.100

RJSF RDO (Archives)
Sukagawa, Japan

Feed Status: UP
Listen in your browser - HTML5 player(in browser, HTML5)
Click here to listen with your own player(launches your MP3 player)

RJSF 240000Z 18003KT 110V220 9999 FEW008 SCT010 BKN015 25/22 Q1014

RJSF Flight Activity (Flightaware)

Listeners: 1 out of 1408 total

Fukushima Radio: 118.050

RJTT App/Dep (Archives)
Tokyo, Japan

Feed Status: UP
Listen in your browser - HTML5 player(in browser, HTML5)
Click here to listen with your own player(launches your MP3 player)

RJTT 240030Z 11005KT 9999 FEW020 30/25 Q1011 NOSIG RMK 1CU020 A2988

RJTT Flight Activity (Flightaware)

Listeners: 20 out of 1408 total

Tokyo Approach: 119.100
Tokyo Approach: 119.400
Tokyo Departure: 120.800
Tokyo Departure: 126.000

RJTT Approach (Archives)
Tokyo, Japan

Feed Status: UP
Listen in your browser - HTML5 player(in browser, HTML5)
Click here to listen with your own player(launches your MP3 player)

RJTT 240030Z 11005KT 9999 FEW020 30/25 Q1011 NOSIG RMK 1CU020 A2988

RJTT Flight Activity (Flightaware)

Listeners: 14 out of 1408 total

Tokyo Approach: 119.100
Tokyo Approach: 119.400

RJTT ATIS (Archives)
Tokyo, Japan

Feed Status: UP
Listen in your browser - HTML5 player(in browser, HTML5)
Click here to listen with your own player(launches your MP3 player)

RJTT 240030Z 11005KT 9999 FEW020 30/25 Q1011 NOSIG RMK 1CU020 A2988

RJTT Flight Activity (Flightaware)

Listeners: 0 out of 1408 total

Tokyo ATIS: 128.800

RJTT Company Channels (Archives)
Tokyo, Japan

Feed Status: UP
Listen in your browser - HTML5 player(in browser, HTML5)
Click here to listen with your own player(launches your MP3 player)

RJTT 240030Z 11005KT 9999 FEW020 30/25 Q1011 NOSIG RMK 1CU020 A2988

RJTT Flight Activity (Flightaware)

Listeners: 14 out of 1408 total

Company TBD: 128.500
Company TBD: 131.850
Company TBD: 129.725
Company TBD: 129.700
Company TBD: 131.900
Company TBD: 129.850
Company TBD: 128.975
Company TBD: 123.675
Company TBD: 132.075

RJTT Del/Ground (Archives)
Tokyo, Japan

Feed Status: UP
Listen in your browser - HTML5 player(in browser, HTML5)
Click here to listen with your own player(launches your MP3 player)

RJTT 240030Z 11005KT 9999 FEW020 30/25 Q1011 NOSIG RMK 1CU020 A2988

RJTT Flight Activity (Flightaware)

Listeners: 6 out of 1408 total

Tokyo Clearance Delivery: 121.825
Tokyo Ground: 121.700
Tokyo Ground: 118.225
Tokyo Ground: 121.625
Tokyo Ground: 121.975

RJTT Del/Twr/TCA/Gnd (Archives)
Tokyo, Japan

Feed Status: UP
Listen in your browser - HTML5 player(in browser, HTML5)
Click here to listen with your own player(launches your MP3 player)

RJTT 240030Z 11005KT 9999 FEW020 30/25 Q1011 NOSIG RMK 1CU020 A2988

RJTT Flight Activity (Flightaware)

Listeners: 4 out of 1408 total

Tokyo Clearance Delivery: 121.825
Tokyo Ground: 121.975
Tokyo Ground: 121.625
Tokyo Ground: 121.700
Tokyo Ground: 118.225
Tokyo TCA: 124.750
Tokyo Tower: 118.100
Tokyo Tower: 118.575
Tokyo Tower: 118.725
Tokyo Tower: 124.350

RJTT Departure (Archives)
Tokyo, Japan

Feed Status: UP
Listen in your browser - HTML5 player(in browser, HTML5)
Click here to listen with your own player(launches your MP3 player)

RJTT 240030Z 11005KT 9999 FEW020 30/25 Q1011 NOSIG RMK 1CU020 A2988

RJTT Flight Activity (Flightaware)

Listeners: 4 out of 1408 total

Tokyo Departure: 120.800
Tokyo Departure: 126.000

RJTT Tokyo Control (Archives)
Tokyo, Japan

Feed Status: UP
Listen in your browser - HTML5 player(in browser, HTML5)
Click here to listen with your own player(launches your MP3 player)

RJTT 240030Z 11005KT 9999 FEW020 30/25 Q1011 NOSIG RMK 1CU020 A2988

RJTT Flight Activity (Flightaware)

Listeners: 27 out of 1408 total

Tokyo Control: 133.700
Tokyo Control: 125.900
Tokyo Control: 120.500

RJTT Twr/TCA (Archives)
Tokyo, Japan

Feed Status: UP
Listen in your browser - HTML5 player(in browser, HTML5)
Click here to listen with your own player(launches your MP3 player)

RJTT 240030Z 11005KT 9999 FEW020 30/25 Q1011 NOSIG RMK 1CU020 A2988

RJTT Flight Activity (Flightaware)

Listeners: 15 out of 1408 total

Tokyo TCA: 124.750
Tokyo Tower: 118.100
Tokyo Tower: 118.575
Tokyo Tower: 118.725
Tokyo Tower: 124.350

RJTY Approach (Archives)
Tokyo, Japan

Feed Status: UP
Listen in your browser - HTML5 player(in browser, HTML5)
Click here to listen with your own player(launches your MP3 player)

RJTY 240056Z AUTO 09006KT 10SM -DZ SCT029 BKN050 29/22 A2993 RMK AO2 DZB52 SLP131 P0000 T02920224 FZRANO $

RJTY Flight Activity (Flightaware)

Listeners: 13 out of 1408 total

Yokota Approach: 118.300
Yokota APproach: 123.800
Yokota Approach: 120.700

RJTY ATIS (Archives)
Tokyo, Japan

Feed Status: UP
Listen in your browser - HTML5 player(in browser, HTML5)
Click here to listen with your own player(launches your MP3 player)

RJTY 240056Z AUTO 09006KT 10SM -DZ SCT029 BKN050 29/22 A2993 RMK AO2 DZB52 SLP131 P0000 T02920224 FZRANO $

RJTY Flight Activity (Flightaware)

Listeners: 1 out of 1408 total

Yokota ATIS: 126.400

RJTY Ground (Archives)
Tokyo, Japan

Feed Status: UP
Listen in your browser - HTML5 player(in browser, HTML5)
Click here to listen with your own player(launches your MP3 player)

RJTY 240056Z AUTO 09006KT 10SM -DZ SCT029 BKN050 29/22 A2993 RMK AO2 DZB52 SLP131 P0000 T02920224 FZRANO $

RJTY Flight Activity (Flightaware)

Listeners: 1 out of 1408 total

Yokota Ground: 133.200

RJTY Ground/Tower (Archives)
Tokyo, Japan

Feed Status: UP
Listen in your browser - HTML5 player(in browser, HTML5)
Click here to listen with your own player(launches your MP3 player)

RJTY 240056Z AUTO 09006KT 10SM -DZ SCT029 BKN050 29/22 A2993 RMK AO2 DZB52 SLP131 P0000 T02920224 FZRANO $

RJTY Flight Activity (Flightaware)

Listeners: 0 out of 1408 total

Yokota Ground: 133.200
Yokota Tower: 134.300

RJTY Tower (Archives)
Tokyo, Japan

Feed Status: UP
Listen in your browser - HTML5 player(in browser, HTML5)
Click here to listen with your own player(launches your MP3 player)

RJTY 240056Z AUTO 09006KT 10SM -DZ SCT029 BKN050 29/22 A2993 RMK AO2 DZB52 SLP131 P0000 T02920224 FZRANO $

RJTY Flight Activity (Flightaware)

Listeners: 0 out of 1408 total

Yokota Tower: 134.300

UAAA Approach (Archives)
Almaty, Kazakhstan

Feed Status: UP
Listen in your browser - HTML5 player(in browser, HTML5)
Click here to listen with your own player(launches your MP3 player)

UAAA 240030Z 21002MPS 9999 FEW100 22/09 Q1006 R05R/CLRD65 NOSIG

UAAA Flight Activity (Flightaware)

Listeners: 0 out of 1408 total

Almaty Approach: 124.800

UAAA Tower (Archives)
Almaty, Kazakhstan

Feed Status: UP
Listen in your browser - HTML5 player(in browser, HTML5)
Click here to listen with your own player(launches your MP3 player)

UAAA 240030Z 21002MPS 9999 FEW100 22/09 Q1006 R05R/CLRD65 NOSIG

UAAA Flight Activity (Flightaware)

Listeners: 0 out of 1408 total

Almaty Tower: 119.400

UAAA Tower/Approach (Archives)
Almaty, Kazakhstan

Feed Status: UP
Listen in your browser - HTML5 player(in browser, HTML5)
Click here to listen with your own player(launches your MP3 player)

UAAA 240030Z 21002MPS 9999 FEW100 22/09 Q1006 R05R/CLRD65 NOSIG

UAAA Flight Activity (Flightaware)

Listeners: 1 out of 1408 total

Almaty Approach: 124.800
Almaty Tower: 119.400

UNNT Gnd/Twr/App/Radar/Misc (Archives)
Novosibirsk, Russia

Feed Status: UP
Listen in your browser - HTML5 player(in browser, HTML5)
Click here to listen with your own player(launches your MP3 player)

UNNT 240030Z 01001MPS CAVOK 19/17 Q1005 R07/090070 R34/090070 NOSIG RMK QFE744/0992

UNNT Flight Activity (Flightaware)

Listeners: 6 out of 1408 total

ACC_Novosibirsk-Control [5th military channel]: 128.500
ACC_Novosibirsk-Control [Southeast]: 126.100
ACC_Novosibirsk-Control [West]: 127.000
GPA_Kristallik [Severniy airfield]: 123.425
GPA_Sernisiy [Chkalovskiy airfield]: 124.750
GPA_Tomsk Information 1: 134.500
MIL_3 [3rd military channel]: 130.750
MIL_Larek [Shilovo facility]: 123.750
MIL_Maneken [Chkalovskiy airfield]: 123.550
MIL_Novosibirsk-1 [1st military channel]: 124.000
MIL_Noyabr' 31: 124.900
MIL_Trimaran: 124.500
SP_Air-to-Air: 123.450
SP_Air-to-Air 2: 123.400
SP_Common backup frequency: 129.000
SP_Emergency: 121.500
SP_Emergency 2: 123.100
SP_Flyoff: 124.375
SURF_Boarding: 163.425
SURF_Duty chart: 163.800
SURF_O&D Service: 163.325
SURF_Search & Rescue: 164.000
SURF_Security: 163.750
SURF_Tower surf: 163.650
SURF_Vehicles: 163.850
UNNT_Backup frequency: 127.100
UNNT_Novosibirsk-Approach: 127.500
UNNT_Novosibirsk-Ground: 121.700
UNNT_Novosibirsk-Radar: 122.000
UNNT_Novosibirsk-Tower: 118.500
UNNT_Novosibirsk-Transit: 131.600
UNNT_S7 FOCC: 131.925

UNOO Gnd/Tower/App (Archives)
Omsk, Russia

Feed Status: UP
Listen in your browser - HTML5 player(in browser, HTML5)
Click here to listen with your own player(launches your MP3 player)

UNOO 240030Z 15002MPS CAVOK 21/11 Q1005 R25/CLRD60 NOSIG RMK QFE746

UNOO Flight Activity (Flightaware)

Listeners: 3 out of 1408 total

Aerodrom Kalachevo: 123.300
Aerodrom Marianovka: 123.000
Emergency/Guard: 121.500
Novosibirsk Control (Sector 7): 132.500
Novosibirsk Control (Sector 8): 132.900
Omsk Approach (FL060-FL265): 131.200
Omsk Apron: 118.800
Omsk Start/Radar: 119.000
Omsk Taxiing: 121.700
Omsk Transit: 131.700
UNOS/OMSK-Severny: 124.000

UNTT Gnd/Info/Radar/Control (Archives)
Tomsk, Russia

Feed Status: UP
Listen in your browser - HTML5 player(in browser, HTML5)
Click here to listen with your own player(launches your MP3 player)

UNTT Flight Activity (Flightaware)

Listeners: 1 out of 1408 total

Common Backup Frequency: 129.000
Emergency/Guard: 121.500
Kemerovo Approach: 125.500
Novosibirsk Control (Sector 3): 129.300
Novosibirsk Control (Sector 5): 132.300
Novosibirsk Control (Sector 9): 134.400
Tomsk Ground: 118.800
Tomsk Information (Sector 3): 129.800
Tomsk Tower: 127.300
Tomsk Transit: 131.875
Troynik (Golovino): 122.400

USTR Gnd/Twr/App (Archives)
Tyumen, Russia

Feed Status: UP
Listen in your browser - HTML5 player(in browser, HTML5)
Click here to listen with your own player(launches your MP3 player)

USTR 240030Z 34003MPS 9999 BKN047CB 16/15 Q1003 R30/290060 R21/290060 TEMPO 2100 -TSRA BR BKN005 BKN020CB

USTR Flight Activity (Flightaware)

Listeners: 1 out of 1408 total

Tyumen Approach: 126.100
Tyumen Control: 132.600
Tyumen Control: 133.600
Tyumen Info (Regional): 133.400
Tyumen Start: 118.200
Tyumen Transit: 131.800

USUU Twr/App/Control (Archives)
Kurgan, Russia

Feed Status: UP
Listen in your browser - HTML5 player(in browser, HTML5)
Click here to listen with your own player(launches your MP3 player)

USUU Flight Activity (Flightaware)

Listeners: 0 out of 1408 total

Aerodromnaya 50: 164.100
Baggage Handling: 164.025
Kurgan Approach: 120.300
Kurgan Tower: 134.300
Kurgan/USUU Transit: 131.700
Kurtamysh: 122.450
Ural Control Sector 4: 119.700
USUL Tower: 129.600

VHHH ATIS
Hong Kong, Hong Kong

Feed Status: DOWN
Offline since: 2020-04-09 19:09:06 UTC

VHHH 240030Z VRB02KT 9999 FEW022 30/26 Q0998 NOSIG

Hong Kong Arrival ATIS: 128.200

VHHH Clearance Delivery
Hong Kong, Hong Kong

Feed Status: DOWN
Offline since: 2020-04-09 19:09:06 UTC

VHHH 240030Z VRB02KT 9999 FEW022 30/26 Q0998 NOSIG

Hong Kong Clearance Delivery: 129.900

VHHH Ground
Hong Kong, Hong Kong

Feed Status: DOWN
Offline since: 2020-04-09 19:08:40 UTC

VHHH 240030Z VRB02KT 9999 FEW022 30/26 Q0998 NOSIG

Hong Kong Ground (North): 121.600
Hong Kong Ground (South): 122.550

VHHH Ground (North)
Hong Kong, Hong Kong

Feed Status: DOWN
Offline since: 2020-04-09 19:09:06 UTC

VHHH 240030Z VRB02KT 9999 FEW022 30/26 Q0998 NOSIG

Hong Kong Ground (North): 121.600

VHHH Ground (South)
Hong Kong, Hong Kong

Feed Status: DOWN
Offline since: 2020-04-09 19:09:06 UTC

VHHH 240030Z VRB02KT 9999 FEW022 30/26 Q0998 NOSIG

Hong Kong Ground (South): 122.550

VMMC Tower (Archives)
Taipa, China

Feed Status: UP
Listen in your browser - HTML5 player(in browser, HTML5)
Click here to listen with your own player(launches your MP3 player)

VMMC 240030Z 25006KT 9999 FEW025 30/26 Q0998 NOSIG

VMMC Flight Activity (Flightaware)

Listeners: 1 out of 1408 total

Macau Tower: 118.000

VTBS Approach (East)
Bangkok, Thailand

Feed Status: DOWN
Offline since: 2021-07-23 04:54:06 UTC

VTBS 240030Z 20006KT 8000 -RA FEW020 BKN090 28/25 Q1006 NOSIG

Bangkok Approach (East): 122.350

VTBS Approach 119.1
Bangkok, Thailand

Feed Status: DOWN
Offline since: 2021-07-23 04:54:06 UTC

VTBS 240030Z 20006KT 8000 -RA FEW020 BKN090 28/25 Q1006 NOSIG

Bangkok Approach: 119.100

VTBS Approach 119.4
Bangkok, Thailand

Feed Status: DOWN
Offline since: 2021-07-23 04:54:06 UTC

VTBS 240030Z 20006KT 8000 -RA FEW020 BKN090 28/25 Q1006 NOSIG

Bangkok Approach: 119.400

VTBS Approach 120.3
Bangkok, Thailand

Feed Status: DOWN
Offline since: 2021-07-23 04:54:06 UTC

VTBS 240030Z 20006KT 8000 -RA FEW020 BKN090 28/25 Q1006 NOSIG

Bangkok Approach: 120.300

VTBS Approach/Arrival
Bangkok, Thailand

Feed Status: DOWN
Offline since: 2021-07-23 04:54:06 UTC

VTBS 240030Z 20006KT 8000 -RA FEW020 BKN090 28/25 Q1006 NOSIG

Bangkok Approach: 124.350
Bangkok Approach: 125.200
Bangkok Approach: 126.300
Bangkok Approach (North): 128.950
Bangkok Arrival (VTBD): 133.000

VTBS Arrival 121.1
Bangkok, Thailand

Feed Status: DOWN
Offline since: 2021-07-23 04:54:06 UTC

VTBS 240030Z 20006KT 8000 -RA FEW020 BKN090 28/25 Q1006 NOSIG

Bangkok Arrival: 121.100

VTBS ATIS
Bangkok, Thailand

Feed Status: DOWN
Offline since: 2021-07-23 04:54:06 UTC

VTBS 240030Z 20006KT 8000 -RA FEW020 BKN090 28/25 Q1006 NOSIG

Bangkok D-ATIS: 127.650

VTBS Departure
Bangkok, Thailand

Feed Status: DOWN
Offline since: 2021-07-23 04:54:06 UTC

VTBS 240030Z 20006KT 8000 -RA FEW020 BKN090 28/25 Q1006 NOSIG

Bangkok Departure: 119.250

VTBS Ground (All)
Bangkok, Thailand

Feed Status: DOWN
Offline since: 2021-07-23 04:54:06 UTC

VTBS 240030Z 20006KT 8000 -RA FEW020 BKN090 28/25 Q1006 NOSIG

Bangkok Ground (East): 121.650
Bangkok Ground (Main): 121.750
Bangkok Ground (West): 121.950

VTBS Ground (East)
Bangkok, Thailand

Feed Status: DOWN
Offline since: 2021-07-23 04:54:06 UTC

VTBS 240030Z 20006KT 8000 -RA FEW020 BKN090 28/25 Q1006 NOSIG

Bangkok Ground (East): 121.650

VTBS Ground (Main)
Bangkok, Thailand

Feed Status: DOWN
Offline since: 2021-07-23 04:54:06 UTC

VTBS 240030Z 20006KT 8000 -RA FEW020 BKN090 28/25 Q1006 NOSIG

Bangkok Ground (Main): 121.750

VTBS Ground (West)
Bangkok, Thailand

Feed Status: DOWN
Offline since: 2021-07-23 04:54:06 UTC

VTBS 240030Z 20006KT 8000 -RA FEW020 BKN090 28/25 Q1006 NOSIG

Bangkok Ground (West): 121.950

VTBS Tower
Bangkok, Thailand

Feed Status: DOWN
Offline since: 2021-07-23 04:54:06 UTC

VTBS 240030Z 20006KT 8000 -RA FEW020 BKN090 28/25 Q1006 NOSIG

Bangkok Tower (Rwy 01L/19R): 119.000
Bangkok Tower (Rwy 01R/19L): 118.200

VTBS Tower (Rwy 01L/19R)
Bangkok, Thailand

Feed Status: DOWN
Offline since: 2021-07-23 04:54:06 UTC

VTBS 240030Z 20006KT 8000 -RA FEW020 BKN090 28/25 Q1006 NOSIG

Bangkok Tower (Rwy 01L/19R): 119.000

VTBS Tower (Rwy 01R/19L)
Bangkok, Thailand

Feed Status: DOWN
Offline since: 2021-07-23 04:54:06 UTC

VTBS 240030Z 20006KT 8000 -RA FEW020 BKN090 28/25 Q1006 NOSIG

Bangkok Tower (Rwy 01R/19L): 118.200

VTSS Approach (Archives)
Songkhla, Thailand

Feed Status: UP
Listen in your browser - HTML5 player(in browser, HTML5)
Click here to listen with your own player(launches your MP3 player)

VTSS 240030Z 00000KT 9999 FEW020 SCT100 26/26 Q1009 NOSIG

VTSS Flight Activity (Flightaware)

Listeners: 0 out of 1408 total

Hat Yai Approach: 126.700

WAHH Approach
Yogyakarta, Indonesia

Feed Status: DOWN
Offline since: 2019-01-09 17:03:03 UTC

Adisutjipto Approach: 123.400

WBKK Gnd/Twr/Radar/Control (Archives)
Kota Kinabalu, Malaysia

Feed Status: UP
Listen in your browser - HTML5 player(in browser, HTML5)
Click here to listen with your own player(launches your MP3 player)

WBKK 240030Z 12005KT 090V150 9999 FEW014 29/25 Q1009 NOSIG


Listeners: 3 out of 1408 total

Kinabalu Director: 119.100
Kinabalu Ground: 121.600
Kinabalu Radar: 126.100
Kinabalu Radar: 132.450
Kinabalu Radar: 128.300
Kinabalu Tower: 118.300

WBKS Approach (Archives)
Sandakan, Malaysia

Feed Status: UP
Listen in your browser - HTML5 player(in browser, HTML5)
Click here to listen with your own player(launches your MP3 player)

WBKS 240000Z 18005KT 110V280 9999 FEW016 28/26 Q1009


Listeners: 2 out of 1408 total

Sandakan Approach/Departure: 123.200

WBKS ATIS (Archives)
Sandakan, Malaysia

Feed Status: UP
Listen in your browser - HTML5 player(in browser, HTML5)
Click here to listen with your own player(launches your MP3 player)

WBKS 240000Z 18005KT 110V280 9999 FEW016 28/26 Q1009


Listeners: 1 out of 1408 total

Sandakan ATIS: 128.200

WBKS Emergency/Guard (Archives)
Sandakan, Malaysia

Feed Status: UP
Listen in your browser - HTML5 player(in browser, HTML5)
Click here to listen with your own player(launches your MP3 player)

WBKS 240000Z 18005KT 110V280 9999 FEW016 28/26 Q1009


Listeners: 1 out of 1408 total

Emergency/Guard: 121.500

WBKS Gnd/Twr/App/Guard (Archives)
Sandakan, Malaysia

Feed Status: UP
Listen in your browser - HTML5 player(in browser, HTML5)
Click here to listen with your own player(launches your MP3 player)

WBKS 240000Z 18005KT 110V280 9999 FEW016 28/26 Q1009


Listeners: 1 out of 1408 total

Emergency/Guard: 121.500
Sandakan Approach/Departure: 123.200
Sandakan Ground: 121.900
Sandakan Tower: 122.050

WBKS Ground (Archives)
Sandakan, Malaysia

Feed Status: UP
Listen in your browser - HTML5 player(in browser, HTML5)
Click here to listen with your own player(launches your MP3 player)

WBKS 240000Z 18005KT 110V280 9999 FEW016 28/26 Q1009


Listeners: 1 out of 1408 total

Sandakan Ground: 121.900

WBKS Tower (Archives)
Sandakan, Malaysia

Feed Status: UP
Listen in your browser - HTML5 player(in browser, HTML5)
Click here to listen with your own player(launches your MP3 player)

WBKS 240000Z 18005KT 110V280 9999 FEW016 28/26 Q1009


Listeners: 1 out of 1408 total

Sandakan Tower: 122.050

WMKB Radar (Archives)
Penang, Malaysia

Feed Status: UP
Listen in your browser - HTML5 player(in browser, HTML5)
Click here to listen with your own player(launches your MP3 player)

WMKB 240000Z VRB01KT 7000 FEW020 26/25 Q1009 NOSIG


Listeners: 1 out of 1408 total

Butterworth Radar: 125.800

WMKK Control/Info/Radar
Sepang, Malaysia

Feed Status: DOWN
Offline since: 2021-05-04 16:49:22 UTC

WMKK 240030Z VRB03KT 9999 FEW018 27/23 Q1010 NOSIG

Lumpur Departure: 120.350
Lumpur Departure: 124.650
Lumpur Departure: 125.100
Lumpur Departure: 135.250
Lumpur Departure: 135.750
Lumpur Information (North): 134.650
Lumpur Information (South): 126.100
Lumpur Radar: 133.700
Lumpur Radar: 132.600
Lumpur Radar: 133.400
Lumpur Radar: 119.450
Lumpur Radar: 125.850
Lumpur Radar: 118.650
Lumpur Radar: 124.200
Lumpur Radar: 121.250
Lumpur Radar: 128.350
Lumpur Radar (East): 134.250
Lumpur Radar (North): 132.800
Lumpur Radar (South): 123.750

WMSA Del/Gnd/Twr/App
Subang, Malaysia

Feed Status: DOWN
Offline since: 2021-05-04 16:49:22 UTC

WMSA 240000Z 00000KT 9999 FEW018 27/23 Q1010

Lumpur Approach: 119.450
Lumpur Director: 124.200
Subang Clearance Delivery: 126.000
Subang Ground: 121.900
Subang Tower: 118.200

ZBAA Tower (Archives)
Beijing, China

Feed Status: UP
Listen in your browser - HTML5 player(in browser, HTML5)
Click here to listen with your own player(launches your MP3 player)

ZBAA 240030Z 06002MPS 030V090 4000 BR NSC 28/25 Q1008 NOSIG


Listeners: 16 out of 1408 total

Beijing Tower (Rwy 01/19): 118.600

ZYCY Tower
Chaoyang, China

Feed Status: DOWN
Offline since: 2020-07-23 03:04:23 UTC


Chaoyang Tower: 118.350